Weather Roundup
Issued by NWS Springfield, MO

Home | Current Version | Previous Version | Text Only | Print | Product List | Glossary On
Versions: 1 2 3 4 5 6 7 8 9 10 11 12 13 14 15 16 17 18 19 20 21 22 23 24 25 26 27 28 29 30 31 32 33 34 35 36 37 38 39 40 41 42 43 44 45 46 47 48 49 50
000
NZUS99 KSGF 060359
HRRSGF

HOURLY WEATHER
NATIONAL WEATHER SERVICE SPRINGFIELD MO
1100 PM CDT TUE MAY 05 2015

......SGF CWA......

CITY           SKY/WX    TMP DP  RH WIND       PRES   REMARKS
SPRINGFIELD    MOCLDY    70  53  54 SE14      30.08S
JOPLIN         CLOUDY    70  55  59 SE9       30.03S
WEST PLAINS    CLEAR     65  52  62 SE3       30.15S
ROLLA          PTCLDY    66  55  67 SE8       30.11S
OSAGE BEACH    PTCLDY    70  54  56 SE3       30.10S

......SURROUNDING SGF CWA......

CITY           SKY/WX    TMP DP  RH WIND       PRES   REMARKS
CHANUTE        CLOUDY    67  65  93 E5        30.00F
PARSONS        CLOUDY    67  66  97 CALM      30.00F
COFFEYVILLE    CLOUDY    66  64  93 S5        30.00R
EMPORIA        LGT RAIN  64  62  93 SE13      30.00R
SILOAM SPRINGS PTCLDY    66  52  59 SE10      30.06S
HARRISON AR    PTCLDY    65  54  67 SE7       30.11S
NEAR YELLVILLE PTCLDY    70  54  56 CALM      30.10S

......KANSAS AND MISSOURI......

CITY           SKY/WX    TMP DP  RH WIND       PRES   REMARKS
KANSAS CTY INT CLOUDY    65  62  90 E9        30.03F
DOWNTOWN KC    CLOUDY    67  64  90 E6        30.03S
COLUMBIA       PTCLDY    67  61  81 SE6       30.10S
SEDALIA        MOCLDY    68  59  73 SE7       30.09S
ST JOSEPH      CLOUDY    65  61  87 E8        30.03F
ST LOUIS       PTCLDY    74  58  57 SE7       30.14S
SPIRIT OF STL  CLEAR     68  58  70 SE5       30.12S
KIRKSVILLE     CLOUDY    69  60  73 SE8       30.10S
WICHITA        RAIN      65  62  90 SE21      29.93F
TOPEKA         LGT RAIN  65  63  93 SW10      30.03R
OLATHE         CLOUDY    66  64  93 E7        30.03S

......TENNESSEE......

CITY           SKY/WX    TMP DP  RH WIND       PRES   REMARKS
MEMPHIS        CLEAR     70  54  56 SE3       30.16R
NASHVILLE      PTCLDY    67  57  70 S5        30.21S

......ARKANSAS.......

CITY           SKY/WX    TMP DP  RH WIND       PRES   REMARKS
FAYETTEVILLE   CLEAR     71  56  58 SE9       30.05F
FT SMITH       CLOUDY    75  52  44 SE8       30.02F
LITTLE ROCK    PTCLDY    70  55  59 E7        30.10S

......OKLAHOMA.......

CITY           SKY/WX    TMP DP  RH WIND       PRES   REMARKS
TULSA          LGT RAIN  68  67  96 SE9       29.97F
PONCA CITY     RAIN      66  64  93 SE14      29.92F FOG
MCALESTER      CLOUDY    66  64  93 SE5       29.99F
OKLAHOMA CITY  TSTM      67  64  90 SE17G25   29.89F FOG

......IOWA............

CITY           SKY/WX    TMP DP  RH WIND       PRES   REMARKS
DES MOINES     CLOUDY    69  62  78 E10       30.06R
QUAD CITIES    CLOUDY    61  58  90 E12       30.15S FOG

......ILLINOIS........

CITY           SKY/WX    TMP DP  RH WIND       PRES   REMARKS
QUINCY         PTCLDY    70  57  63 SE6       30.11S
CHICAGO        FOG       48  47  96 NE7       30.21F VSB 3/4



USA.gov is the U.S. government's official web portal to all federal, state and local government web resources and services.